Location: Home
(42.5358°N, 72.7383°W)
Time: 03:20:20
(UTC-04:00)

Vanguard 1 - Pass Details

Date: 05 June 2022
Orbit: 649 x 3832 km, 34.2° (Epoch: 24 June)

Event Time Altitude Azimuth Distance (km) Brightness Sun altitude
Rises 04:12:56 0° 275° (W) 5,570 13.5 -9.8°
Reaches altitude 10° 04:16:07 10° 270° (W) 4,919 13.2 -9.4°
Maximum altitude 04:30:48 51° 201° (SSW) 3,820 12.7 -7.3°
Drops below altitude 10° 04:52:23 10° 134° (SE) 6,932 14.5 -4.2°
Sets 04:58:02 0° 130° (SE) 7,908 14.9 -3.4°
